Weather in Habaraduwa

Sri Lanka     6°02′20″N   80°12′57″E
temp.,
°C
wind,
m/s
gust,
m/s
humid.,
%
clouds,
%
prec.,
mm/h
press.,
hPa
HPBL,
m
6 march, sat
sat623:30+27s0176100 0.0 1014391
02:30+25nnw128214 0.0 1011197
05:30+26wnw128028 0.0 1011394
08:30+27ne227542 0.0 1014204
11:30+30s226266 0.0 1013610
14:30+28ssw446969 0.2 1010527
17:30+28s237146 0.2 1010535
20:30+27ese117284 0.0 1013465
7 march, sun
sun723:30+27ese127586 0.0 1013381
02:30+26ese128225 0.0 1010352
05:30+25nne228615 0.0 1010150
08:30+28n22760 0.0 1013376
11:30+29w337211 0.1 1012533
14:30+29w557118 0.1 1008665
17:30+27w237950 0.8 1009432
20:30+27se1181100 0.1 1011153
8 march, mon
mon823:30+26ese118383 0.2 1011146
02:30+25e24860 0.1 1009327
05:30+25e368743 0.1 1009289
08:30+27e367975 0.0 1012422
11:30+31se456339 0.2 1011904
14:30+30ese456459 4.8 1009814
17:30+28ne238075 9.0 1009329
20:30+27ne228193 0.0 1011273
9 march, tue
tue923:30+26ene238396 0.1 1012254
02:30+25ene358859 0.0 1009215
05:30+25ene358742 0.2 1010231
08:30+26ene468072 0.0 1013422
11:30+31ese576373 0.1 1012784
14:30+31ese6762100 0.9 1009789
17:30+29e467077 3.7 1010569
20:30+27ene477898 0.1 1012464
10 march, wed
wed1023:30+25ene478587 0.1 1012326
02:30+24ene458776 0.0 1010229
05:30+24ene238439 0.0 1010158
08:30+28ne12710 0.0 1012309
11:30+31sw235823 0.0 1012931
14:30+28wsw4577100 3.3 1009471
17:30+27se1379100 11.9 1009243
20:30+26ene5883100 1.1 1012514